Location: Unspecified
(47.5840°N, 122.3000°W)
Time: 23:46:01
(UTC+00:00)

CZ-2D R/B - Pass Details

Date: 04 August 2024
Orbit: 791 x 842 km, 98.8° (Epoch: 16 September)

Event Time Altitude Azimuth Distance (km) Brightness Sun altitude
Rises 12:12:19 0° 360° (N) 3,313 5.8 -6.5°
Reaches altitude 10° 12:15:46 10° 336° (NNW) 2,385 4.7 -6.0°
Maximum altitude 12:18:22 14° 306° (NW) 2,119 4.1 -5.7°
Drops below altitude 10° 12:20:58 10° 276° (W) 2,393 4.1 -5.3°
Enters shadow 12:23:12 - 259° (W) 2,946 4.4 -5.0°
